FENGMANIU-1 (FMN-1) (43192 NORAD) Tracking and Keplerian Element Data
This shows tracking and keplerian element data for the satellite.
Feedback or suggestion? Click here.
Element | Value |
Catalog | 43192 |
Name | FENGMANIU-1 (FMN-1) |
Epoch Orbit | 16509 |
Epoch Day | 21.08515589 |
Epoch Year | 2021 |
RAAN | 156.0721 |
Inclination | 97.467 |
Eccentricity | 0.0016075 |
Argument of Perigee | 47.0227 |
Mean Anonmoly | 70.1815 |
Mean Motion | 15.26883861 |
Decay Rate | 2.383E-05 |
L1 | 1 43192U 18015A 21021.08515589 .00002383 00000-0 92783-4 0 9990 |
L2 | 2 43192 97.4670 156.0721 0016075 47.0227 70.1815 15.26883861165098 |
Live tracking and technical data element details for FENGMANIU-1 (FMN-1) (NORAD 43192). FENGMANIU-1 (FMN-1) can be tracked NOW for your location showing map with azimuth and elevation plus other details from your city location.
Track the satellite on the map from your city or location and see movement details for azimuth, elevation, latitude, longitude, range, height, and movement on the map or in text.
IsCatalogInMostPopularTable: catalog: 43192, numindb: 592
Update: records affected: 1
GetName: 43192 FENGMANIU-1 (FMN-1)
Hit Count: updated at: Sat, 23 Jan 2021 04:33:40 GMT